RYR201 EKCH-LOWI

Flight info

Callsign RYR201
Flight time 1h 40m
Altitude 39000
Route SALLO M44 KOGIM DCT UNRIG DCT MAREM DCT APRAQ DCT BUDEX/N0456F400 DCT PINQI DCT BUBSE DCT MORED DCT ERANI DCT NANIT NANIT2A
Aircraft B738/M-SDE2E3FGHIRWXY/LB1

Departure

Time 2026-04-22 18:29
Airport Copenhagen Kastrup Airport (EKCH)

Arrival

Time 2026-04-22 20:10
Airport Innsbruck Airport (LOWI)
Time Latitude Longitude Altitude Speed Heading
2026-04-22 18:13 55.62515 12.65684 16 ft 0 kts 359°
2026-04-22 18:17 55.62501 12.65685 16 ft 4 kts 359°
2026-04-22 18:17 55.62479 12.65685 16 ft 3 kts 358°
2026-04-22 18:17 55.62455 12.65693 16 ft 4 kts 323°
2026-04-22 18:18 55.62443 12.65727 16 ft 3 kts 269°
2026-04-22 18:18 55.62443 12.65699 16 ft 4 kts 269°
2026-04-22 18:18 55.62442 12.65651 18 ft 4 kts 269°
2026-04-22 18:18 55.62441 12.65603 16 ft 4 kts 269°
2026-04-22 18:19 55.62441 12.65556 16 ft 4 kts 269°
2026-04-22 18:19 55.62440 12.65510 16 ft 2 kts 269°
2026-04-22 18:19 55.62440 12.65506 16 ft 0 kts 269°
2026-04-22 18:22 55.62439 12.65456 16 ft 9 kts 269°
2026-04-22 18:22 55.62433 12.65308 18 ft 13 kts 272°
2026-04-22 18:23 55.62382 12.65204 16 ft 14 kts 181°
2026-04-22 18:23 55.62270 12.65198 16 ft 17 kts 181°
2026-04-22 18:23 55.62166 12.65133 16 ft 16 kts 213°
2026-04-22 18:24 55.61987 12.64924 17 ft 15 kts 213°
2026-04-22 18:24 55.61902 12.64826 16 ft 14 kts 212°
2026-04-22 18:24 55.61741 12.64643 16 ft 15 kts 212°
2026-04-22 18:25 55.61632 12.64514 17 ft 23 kts 213°
2026-04-22 18:25 55.61471 12.64330 16 ft 31 kts 212°
2026-04-22 18:25 55.61288 12.64121 17 ft 31 kts 213°
2026-04-22 18:26 55.60946 12.63728 16 ft 27 kts 213°
2026-04-22 18:26 55.60829 12.63595 16 ft 12 kts 205°
2026-04-22 18:26 55.60757 12.63645 16 ft 12 kts 134°
2026-04-22 18:26 55.60704 12.63752 16 ft 11 kts 130°
2026-04-22 18:27 55.60684 12.63878 18 ft 9 kts 69°
2026-04-22 18:27 55.60725 12.63947 18 ft 0 kts 41°
2026-04-22 18:27 55.60727 12.63950 18 ft 1 kts 41°
2026-04-22 18:27 55.60730 12.63955 18 ft 1 kts 41°
2026-04-22 18:28 55.60731 12.63957 18 ft 0 kts 41°
2026-04-22 18:28 55.60734 12.63961 18 ft 1 kts 41°
2026-04-22 18:28 55.60860 12.64160 17 ft 59 kts 41°
2026-04-22 18:28 55.61154 12.64612 16 ft 105 kts 41°
2026-04-22 18:29 55.61844 12.65693 44 ft 155 kts 40°
2026-04-22 18:29 55.62633 12.67019 607 ft 159 kts 37°
2026-04-22 18:29 55.63482 12.68318 1280 ft 158 kts 34°
2026-04-22 18:29 55.64330 12.69593 1986 ft 159 kts 32°
2026-04-22 18:30 55.65159 12.70836 2741 ft 156 kts 30°
2026-04-22 18:30 55.65594 12.74909 3604 ft 220 kts 114°
2026-04-22 18:30 55.64502 12.76934 3817 ft 245 kts 150°
2026-04-22 18:31 55.62931 12.78349 4065 ft 262 kts 155°
2026-04-22 18:31 55.61199 12.79785 4306 ft 285 kts 155°
2026-04-22 18:31 55.59380 12.81285 4981 ft 292 kts 155°
2026-04-22 18:31 55.57535 12.82820 5742 ft 294 kts 154°
2026-04-22 18:32 55.55676 12.84381 6518 ft 298 kts 154°
2026-04-22 18:32 55.53796 12.85972 7262 ft 301 kts 153°
2026-04-22 18:32 55.51905 12.87585 8083 ft 303 kts 153°
2026-04-22 18:32 55.49995 12.89217 8898 ft 306 kts 153°
2026-04-22 18:33 55.48063 12.90872 9613 ft 313 kts 152°
2026-04-22 18:33 55.46093 12.92558 10409 ft 317 kts 152°
2026-04-22 18:33 55.44060 12.94299 10813 ft 336 kts 152°
2026-04-22 18:33 55.41879 12.96173 11021 ft 360 kts 152°
2026-04-22 18:34 55.39589 12.98135 11546 ft 370 kts 153°
2026-04-22 18:34 55.37261 13.00124 12339 ft 374 kts 153°
2026-04-22 18:34 55.34915 13.02126 13192 ft 375 kts 153°
2026-04-22 18:34 55.32560 13.04131 14047 ft 377 kts 153°
2026-04-22 18:35 55.30183 13.06152 14782 ft 382 kts 153°
2026-04-22 18:35 55.27790 13.08188 15612 ft 383 kts 152°
2026-04-22 18:35 55.25381 13.10234 16431 ft 386 kts 152°
2026-04-22 18:35 55.22955 13.12299 17216 ft 389 kts 152°
2026-04-22 18:36 55.20513 13.14370 18001 ft 392 kts 152°
2026-04-22 18:36 55.18054 13.16454 18732 ft 395 kts 152°
2026-04-22 18:36 55.15567 13.18556 19402 ft 398 kts 152°
2026-04-22 18:36 55.13068 13.20662 20068 ft 400 kts 151°
2026-04-22 18:37 55.10552 13.22785 20716 ft 403 kts 151°
2026-04-22 18:37 55.08013 13.24923 21356 ft 406 kts 151°
2026-04-22 18:37 55.05446 13.27064 21921 ft 412 kts 151°
2026-04-22 18:37 55.02858 13.29222 22561 ft 414 kts 151°
2026-04-22 18:38 55.00255 13.31400 23219 ft 416 kts 151°
2026-04-22 18:38 54.97644 13.33594 23818 ft 419 kts 150°
2026-04-22 18:38 54.95005 13.35811 24304 ft 422 kts 150°
2026-04-22 18:39 54.89468 13.39389 25305 ft 433 kts 165°
2026-04-22 18:39 54.86480 13.40210 25787 ft 437 kts 167°
2026-04-22 18:39 54.83464 13.40943 26239 ft 440 kts 167°
2026-04-22 18:39 54.80417 13.41631 26682 ft 444 kts 170°
2026-04-22 18:40 54.77322 13.41970 27144 ft 448 kts 173°
2026-04-22 18:40 54.74207 13.42137 27698 ft 448 kts 174°
2026-04-22 18:40 54.71083 13.42245 28140 ft 450 kts 174°
2026-04-22 18:40 54.67939 13.42349 28502 ft 454 kts 173°
2026-04-22 18:41 54.64773 13.42470 28888 ft 457 kts 173°
2026-04-22 18:41 54.61584 13.42611 29275 ft 459 kts 173°
2026-04-22 18:41 54.58383 13.42772 29680 ft 461 kts 172°
2026-04-22 18:41 54.55173 13.42945 30142 ft 461 kts 172°
2026-04-22 18:42 54.51974 13.43123 30644 ft 459 kts 172°
2026-04-22 18:42 54.48803 13.43297 31260 ft 454 kts 171°
2026-04-22 18:42 54.45666 13.43470 31862 ft 448 kts 171°
2026-04-22 18:42 54.42566 13.43644 32396 ft 445 kts 171°
2026-04-22 18:43 54.39475 13.43821 32844 ft 444 kts 171°
2026-04-22 18:43 54.36381 13.43996 33240 ft 444 kts 170°
2026-04-22 18:43 54.33292 13.44172 33626 ft 445 kts 170°
2026-04-22 18:43 54.30195 13.44350 33974 ft 446 kts 170°
2026-04-22 18:44 54.27104 13.44525 34381 ft 444 kts 170°
2026-04-22 18:44 54.24058 13.44694 34797 ft 442 kts 170°
2026-04-22 18:44 54.20997 13.44862 35206 ft 440 kts 170°
2026-04-22 18:44 54.17937 13.45031 35528 ft 440 kts 170°
2026-04-22 18:45 54.14879 13.45204 35795 ft 441 kts 171°
2026-04-22 18:45 54.11813 13.45376 36112 ft 440 kts 171°
2026-04-22 18:45 54.08759 13.45546 36460 ft 439 kts 171°
2026-04-22 18:45 54.05704 13.45715 36784 ft 439 kts 171°
2026-04-22 18:46 54.02655 13.45885 37066 ft 439 kts 171°
2026-04-22 18:46 53.99608 13.46054 37387 ft 438 kts 171°
2026-04-22 18:46 53.96563 13.46222 37723 ft 437 kts 172°
2026-04-22 18:46 53.93524 13.46390 38037 ft 436 kts 172°
2026-04-22 18:47 53.90489 13.46556 38260 ft 438 kts 172°
2026-04-22 18:47 53.87429 13.46728 38237 ft 443 kts 172°
2026-04-22 18:47 53.81193 13.47079 38256 ft 452 kts 172°
2026-04-22 18:48 53.74849 13.47429 38252 ft 459 kts 172°
2026-04-22 18:48 53.68441 13.47774 38256 ft 462 kts 172°
2026-04-22 18:49 53.62003 13.48117 38250 ft 463 kts 172°
2026-04-22 18:49 53.55614 13.48459 38241 ft 455 kts 172°
2026-04-22 18:50 53.49315 13.48793 38258 ft 452 kts 172°
2026-04-22 18:50 53.43023 13.49136 38262 ft 453 kts 172°
2026-04-22 18:51 53.36718 13.49479 38269 ft 454 kts 172°
2026-04-22 18:51 53.30399 13.49819 38254 ft 455 kts 172°
2026-04-22 18:52 53.24083 13.50157 38261 ft 454 kts 172°
2026-04-22 18:52 53.17752 13.50495 38274 ft 456 kts 172°
2026-04-22 18:53 53.11410 13.50828 38270 ft 456 kts 172°
2026-04-22 18:53 53.05059 13.51173 38268 ft 457 kts 172°
2026-04-22 18:54 52.98682 13.51506 38276 ft 457 kts 172°
2026-04-22 18:54 52.92325 13.51835 38275 ft 459 kts 173°
2026-04-22 18:55 52.85978 13.52172 38275 ft 460 kts 172°
2026-04-22 18:55 52.79579 13.52506 38277 ft 460 kts 173°
2026-04-22 18:56 52.73176 13.52837 38279 ft 460 kts 173°
2026-04-22 18:56 52.66739 13.53174 38275 ft 460 kts 173°
2026-04-22 18:57 52.60392 13.53504 38271 ft 459 kts 173°
2026-04-22 18:57 52.53963 13.53827 38269 ft 459 kts 173°
2026-04-22 18:58 52.47584 13.54156 38262 ft 458 kts 173°
2026-04-22 18:58 52.41216 13.54484 38271 ft 458 kts 172°
2026-04-22 18:59 52.34845 13.54834 38270 ft 458 kts 172°
2026-04-22 18:59 52.28475 13.55165 38268 ft 458 kts 173°
2026-04-22 19:00 52.22089 13.55475 38281 ft 459 kts 173°
2026-04-22 19:00 52.15699 13.55763 38272 ft 459 kts 173°
2026-04-22 19:01 52.09325 13.56086 38280 ft 457 kts 173°
2026-04-22 19:01 52.02961 13.56426 38267 ft 459 kts 173°
2026-04-22 19:02 51.96584 13.56698 38290 ft 458 kts 173°
2026-04-22 19:02 51.90211 13.57080 38263 ft 459 kts 173°
2026-04-22 19:03 51.83810 13.57408 38277 ft 462 kts 173°
2026-04-22 19:03 51.77371 13.57706 38290 ft 464 kts 173°
2026-04-22 19:04 51.70912 13.58045 38289 ft 466 kts 173°
2026-04-22 19:04 51.64407 13.58387 38284 ft 469 kts 174°
2026-04-22 19:05 51.57870 13.58712 38266 ft 471 kts 173°
2026-04-22 19:05 51.51321 13.59013 38287 ft 471 kts 173°
2026-04-22 19:06 51.44782 13.59313 38293 ft 470 kts 175°
2026-04-22 19:07 51.35053 13.59826 38279 ft 467 kts 174°
2026-04-22 19:07 51.28573 13.60164 38266 ft 465 kts 174°
2026-04-22 19:08 51.22113 13.60457 38278 ft 464 kts 174°
2026-04-22 19:08 51.15652 13.60758 38265 ft 464 kts 174°
2026-04-22 19:09 51.09207 13.61062 38263 ft 463 kts 174°
2026-04-22 19:09 51.03856 13.61326 38275 ft 463 kts 174°
2026-04-22 19:10 50.96319 13.61697 38285 ft 465 kts 174°
2026-04-22 19:10 50.89842 13.62008 38291 ft 467 kts 174°
2026-04-22 19:11 50.83333 13.62317 38295 ft 468 kts 174°
2026-04-22 19:11 50.76818 13.62634 38316 ft 470 kts 174°
2026-04-22 19:12 50.71395 13.63106 38286 ft 468 kts 167°
2026-04-22 19:12 50.65144 13.65700 38301 ft 465 kts 159°
2026-04-22 19:13 50.58963 13.68736 38306 ft 466 kts 159°
2026-04-22 19:13 50.52746 13.71721 38293 ft 468 kts 161°
2026-04-22 19:14 50.46272 13.73222 38298 ft 473 kts 172°
2026-04-22 19:14 50.39713 13.74051 38298 ft 474 kts 172°
2026-04-22 19:15 50.33145 13.74894 38294 ft 473 kts 172°
2026-04-22 19:15 50.26601 13.75803 38292 ft 471 kts 171°
2026-04-22 19:16 50.20077 13.76793 38300 ft 471 kts 171°
2026-04-22 19:16 50.13544 13.77764 38302 ft 472 kts 171°
2026-04-22 19:17 50.07013 13.78712 38299 ft 471 kts 171°
2026-04-22 19:17 50.00488 13.79658 38320 ft 472 kts 171°
2026-04-22 19:18 49.93950 13.80619 38308 ft 472 kts 171°
2026-04-22 19:18 49.87415 13.81563 38299 ft 472 kts 171°
2026-04-22 19:19 49.80879 13.82503 38306 ft 472 kts 172°
2026-04-22 19:19 49.74341 13.83447 38299 ft 472 kts 172°
2026-04-22 19:20 49.67800 13.84383 38293 ft 472 kts 171°
2026-04-22 19:20 49.61265 13.85323 38293 ft 472 kts 172°
2026-04-22 19:21 49.54723 13.86256 38299 ft 473 kts 172°
2026-04-22 19:21 49.48162 13.87192 38304 ft 473 kts 172°
2026-04-22 19:22 49.41592 13.88120 38298 ft 475 kts 172°
2026-04-22 19:22 49.35007 13.89063 38309 ft 477 kts 172°
2026-04-22 19:23 49.28395 13.89984 38321 ft 478 kts 172°
2026-04-22 19:23 49.21760 13.90916 38309 ft 479 kts 172°
2026-04-22 19:24 49.15112 13.91857 38299 ft 480 kts 172°
2026-04-22 19:24 49.08459 13.92790 38304 ft 480 kts 172°
2026-04-22 19:25 49.01792 13.93720 38304 ft 481 kts 172°
2026-04-22 19:25 48.95203 13.94637 38306 ft 480 kts 172°
2026-04-22 19:26 48.88474 13.95572 38308 ft 480 kts 173°
2026-04-22 19:26 48.81819 13.96495 38295 ft 480 kts 173°
2026-04-22 19:27 48.75179 13.97414 38143 ft 478 kts 173°
2026-04-22 19:27 48.71865 13.97596 37824 ft 477 kts 184°
2026-04-22 19:27 48.68622 13.96607 37564 ft 475 kts 198°
2026-04-22 19:27 48.65656 13.94607 37298 ft 474 kts 211°
2026-04-22 19:28 48.62966 13.91724 37079 ft 474 kts 218°
2026-04-22 19:28 48.60370 13.88652 36828 ft 475 kts 218°
2026-04-22 19:28 48.57774 13.85547 36570 ft 476 kts 218°
2026-04-22 19:28 48.55198 13.82417 36328 ft 476 kts 220°
2026-04-22 19:29 48.52682 13.79169 36083 ft 477 kts 221°
2026-04-22 19:29 48.50194 13.75864 35813 ft 474 kts 221°
2026-04-22 19:29 48.47738 13.72578 35327 ft 472 kts 221°
2026-04-22 19:29 48.45270 13.69288 34596 ft 476 kts 221°
2026-04-22 19:30 48.43582 13.67052 34050 ft 479 kts 220°
2026-04-22 19:30 48.40245 13.62666 32945 ft 483 kts 219°
2026-04-22 19:30 48.37710 13.59344 32184 ft 484 kts 219°
2026-04-22 19:30 48.35167 13.56023 31476 ft 483 kts 219°
2026-04-22 19:31 48.32646 13.52695 30795 ft 482 kts 218°
2026-04-22 19:31 48.30120 13.49436 30542 ft 477 kts 217°
2026-04-22 19:31 48.27588 13.46196 30452 ft 480 kts 218°
2026-04-22 19:31 48.25036 13.42919 30329 ft 485 kts 218°
2026-04-22 19:32 48.22497 13.39647 30139 ft 476 kts 218°
2026-04-22 19:32 48.20005 13.36443 29614 ft 468 kts 218°
2026-04-22 19:32 48.17542 13.33275 28882 ft 466 kts 219°
2026-04-22 19:32 48.15084 13.30116 28185 ft 464 kts 219°
2026-04-22 19:33 48.12648 13.26993 27593 ft 459 kts 219°
2026-04-22 19:33 48.10231 13.23894 27030 ft 455 kts 219°
2026-04-22 19:33 48.07841 13.20832 26482 ft 450 kts 219°
2026-04-22 19:33 48.05472 13.17801 25921 ft 446 kts 219°
2026-04-22 19:34 48.03129 13.14806 25381 ft 442 kts 219°
2026-04-22 19:34 48.00803 13.11838 24850 ft 439 kts 219°
2026-04-22 19:34 47.98488 13.08887 24324 ft 435 kts 219°
2026-04-22 19:34 47.96192 13.05963 23816 ft 432 kts 219°
2026-04-22 19:35 47.93916 13.03070 23226 ft 428 kts 219°
2026-04-22 19:35 47.91660 13.00205 22664 ft 424 kts 219°
2026-04-22 19:35 47.90178 12.98325 22291 ft 422 kts 220°
2026-04-22 19:35 47.87204 12.94561 21580 ft 416 kts 220°
2026-04-22 19:36 47.85000 12.91778 21029 ft 413 kts 220°
2026-04-22 19:36 47.82819 12.89019 20493 ft 410 kts 220°
2026-04-22 19:36 47.80649 12.86277 19989 ft 407 kts 220°
2026-04-22 19:36 47.78502 12.83566 19495 ft 404 kts 220°
2026-04-22 19:37 47.76365 12.80874 18998 ft 401 kts 220°
2026-04-22 19:37 47.74245 12.78203 18505 ft 398 kts 220°
2026-04-22 19:37 47.72136 12.75551 17939 ft 395 kts 221°
2026-04-22 19:37 47.70050 12.72931 17467 ft 390 kts 221°
2026-04-22 19:38 47.67982 12.70338 17302 ft 390 kts 220°
2026-04-22 19:38 47.65902 12.67734 17297 ft 391 kts 220°
2026-04-22 19:38 47.63979 12.64922 17265 ft 389 kts 233°
2026-04-22 19:38 47.62421 12.61625 17288 ft 392 kts 238°
2026-04-22 19:39 47.60944 12.58250 17287 ft 389 kts 239°
2026-04-22 19:39 47.59492 12.54882 17248 ft 387 kts 239°
2026-04-22 19:39 47.58052 12.51529 17298 ft 386 kts 239°
2026-04-22 19:39 47.56640 12.48219 17313 ft 388 kts 239°
2026-04-22 19:40 47.55202 12.44820 17288 ft 390 kts 239°
2026-04-22 19:40 47.53755 12.41427 17292 ft 391 kts 239°
2026-04-22 19:40 47.52298 12.38029 17296 ft 391 kts 239°
2026-04-22 19:40 47.50814 12.34580 17294 ft 392 kts 239°
2026-04-22 19:41 47.49369 12.31229 17291 ft 392 kts 239°
2026-04-22 19:41 47.47887 12.27836 17302 ft 393 kts 236°
2026-04-22 19:41 47.46195 12.24714 17142 ft 385 kts 230°
2026-04-22 19:41 47.44440 12.21743 16581 ft 384 kts 230°
2026-04-22 19:42 47.42663 12.18788 15956 ft 385 kts 229°
2026-04-22 19:42 47.40888 12.15851 15490 ft 382 kts 229°
2026-04-22 19:42 47.39130 12.12952 15316 ft 379 kts 229°
2026-04-22 19:42 47.37358 12.10033 15306 ft 382 kts 229°
2026-04-22 19:43 47.33814 12.04218 15304 ft 381 kts 229°
2026-04-22 19:43 47.32038 12.01315 15286 ft 382 kts 229°
2026-04-22 19:43 47.30259 11.98410 15305 ft 381 kts 229°
2026-04-22 19:44 47.28487 11.95512 15301 ft 381 kts 229°
2026-04-22 19:44 47.26712 11.92612 15281 ft 380 kts 229°
2026-04-22 19:44 47.24942 11.89728 15289 ft 379 kts 229°
2026-04-22 19:44 47.23174 11.86851 15281 ft 380 kts 229°
2026-04-22 19:45 47.21972 11.84896 15288 ft 380 kts 229°
2026-04-22 19:45 47.19619 11.81074 15292 ft 381 kts 229°
2026-04-22 19:45 47.17989 11.78012 15257 ft 379 kts 242°
2026-04-22 19:45 47.16810 11.74570 15264 ft 377 kts 248°
2026-04-22 19:46 47.15735 11.71054 15274 ft 377 kts 249°
2026-04-22 19:46 47.14680 11.67525 15270 ft 378 kts 249°
2026-04-22 19:46 47.13622 11.63988 15272 ft 378 kts 249°
2026-04-22 19:46 47.12571 11.60451 15260 ft 378 kts 249°
2026-04-22 19:47 47.11527 11.56916 15265 ft 378 kts 249°
2026-04-22 19:47 47.10487 11.53375 15251 ft 378 kts 249°
2026-04-22 19:47 47.09797 11.51032 15229 ft 377 kts 249°
2026-04-22 19:47 47.08410 11.46319 15245 ft 374 kts 249°
2026-04-22 19:48 47.07382 11.42816 15257 ft 375 kts 249°
2026-04-22 19:48 47.06402 11.39271 15228 ft 374 kts 256°
2026-04-22 19:48 47.06100 11.35602 15207 ft 352 kts 278°
2026-04-22 19:48 47.06596 11.32260 15250 ft 323 kts 291°
2026-04-22 19:49 47.07287 11.29228 15189 ft 304 kts 293°
2026-04-22 19:49 47.07968 11.26371 15229 ft 290 kts 294°
2026-04-22 19:49 47.08619 11.23637 15251 ft 278 kts 294°
2026-04-22 19:49 47.09248 11.20984 15247 ft 273 kts 294°
2026-04-22 19:50 47.09879 11.18344 15234 ft 274 kts 294°
2026-04-22 19:50 47.10509 11.15713 15113 ft 273 kts 294°
2026-04-22 19:50 47.11141 11.13106 14828 ft 270 kts 294°
2026-04-22 19:50 47.11775 11.10513 14370 ft 274 kts 294°
2026-04-22 19:51 47.12418 11.07889 14060 ft 272 kts 294°
2026-04-22 19:51 47.13070 11.05298 13672 ft 272 kts 295°
2026-04-22 19:51 47.13674 11.02702 13482 ft 267 kts 287°
2026-04-22 19:51 47.14019 11.00014 13114 ft 269 kts 283°
2026-04-22 19:52 47.14352 10.97310 12993 ft 267 kts 284°
2026-04-22 19:52 47.14691 10.94617 12990 ft 269 kts 284°
2026-04-22 19:52 47.15034 10.91917 12998 ft 269 kts 284°
2026-04-22 19:52 47.15379 10.89194 13005 ft 272 kts 284°
2026-04-22 19:53 47.15722 10.86468 12983 ft 271 kts 284°
2026-04-22 19:53 47.16065 10.83758 12971 ft 268 kts 284°
2026-04-22 19:53 47.16286 10.81993 12960 ft 261 kts 284°
2026-04-22 19:53 47.16710 10.78556 12976 ft 250 kts 284°
2026-04-22 19:54 47.17018 10.76053 12949 ft 248 kts 283°
2026-04-22 19:54 47.17334 10.73567 12985 ft 249 kts 284°
2026-04-22 19:54 47.17658 10.71054 12998 ft 252 kts 284°
2026-04-22 19:54 47.17988 10.68513 12989 ft 254 kts 284°
2026-04-22 19:55 47.18321 10.65955 12989 ft 256 kts 284°
2026-04-22 19:55 47.18655 10.63407 12976 ft 252 kts 285°
2026-04-22 19:55 47.18891 10.61743 12976 ft 249 kts 284°
2026-04-22 19:55 47.19243 10.59264 12977 ft 247 kts 284°
2026-04-22 19:56 47.19577 10.56745 12973 ft 249 kts 284°
2026-04-22 19:56 47.20076 10.54367 12961 ft 238 kts 309°
2026-04-22 19:56 47.21309 10.52959 12970 ft 229 kts 349°
2026-04-22 19:56 47.22878 10.52895 13008 ft 226 kts
2026-04-22 19:57 47.24354 10.53494 12984 ft 215 kts 29°
2026-04-22 19:57 47.25621 10.54550 12983 ft 205 kts 31°
2026-04-22 19:57 47.26848 10.55578 12981 ft 201 kts 30°
2026-04-22 19:57 47.27976 10.56738 12956 ft 198 kts 52°
2026-04-22 19:58 47.28612 10.58552 12969 ft 205 kts 75°
2026-04-22 19:58 47.28745 10.60602 12974 ft 198 kts 84°
2026-04-22 19:58 47.28812 10.62566 13002 ft 186 kts 84°
2026-04-22 19:58 47.28878 10.64437 12985 ft 180 kts 84°
2026-04-22 19:59 47.28948 10.66265 12979 ft 178 kts 83°
2026-04-22 20:00 47.29391 10.77583 11000 ft 179 kts 84°
2026-04-22 20:00 47.29462 10.79416 10665 ft 179 kts 84°
2026-04-22 20:01 47.29534 10.81254 10292 ft 181 kts 85°
2026-04-22 20:01 47.29607 10.83105 9935 ft 182 kts 84°
2026-04-22 20:01 47.29679 10.84972 9606 ft 180 kts 84°
2026-04-22 20:01 47.29750 10.86781 9355 ft 174 kts 85°
2026-04-22 20:02 47.29817 10.88538 9149 ft 171 kts 85°
2026-04-22 20:02 47.29885 10.90282 8958 ft 171 kts 85°
2026-04-22 20:02 47.29952 10.92031 8764 ft 170 kts 85°
2026-04-22 20:02 47.30016 10.93761 8561 ft 168 kts 85°
2026-04-22 20:03 47.30079 10.95477 8372 ft 167 kts 85°
2026-04-22 20:03 47.30148 10.97222 8095 ft 174 kts 85°
2026-04-22 20:03 47.30215 10.99002 7822 ft 174 kts 86°
2026-04-22 20:03 47.30279 11.00780 7529 ft 173 kts 86°
2026-04-22 20:04 47.30342 11.02541 7226 ft 172 kts 86°
2026-04-22 20:04 47.30413 11.04282 6952 ft 172 kts 86°
2026-04-22 20:04 47.30495 11.06038 6635 ft 171 kts 86°
2026-04-22 20:04 47.30576 11.07755 6290 ft 166 kts 86°
2026-04-22 20:05 47.30651 11.09375 5992 ft 155 kts 85°
2026-04-22 20:05 47.30554 11.10928 5589 ft 154 kts 114°
2026-04-22 20:05 47.29950 11.12236 5317 ft 156 kts 123°
2026-04-22 20:05 47.29344 11.13580 5012 ft 159 kts 115°
2026-04-22 20:06 47.28881 11.15051 4743 ft 157 kts 113°
2026-04-22 20:06 47.28420 11.16488 4484 ft 154 kts 114°
2026-04-22 20:06 47.27970 11.17880 4211 ft 144 kts 113°
2026-04-22 20:06 47.27557 11.19194 3952 ft 138 kts 112°
2026-04-22 20:07 47.27163 11.20459 3702 ft 139 kts 113°
2026-04-22 20:07 47.26770 11.21749 3511 ft 138 kts 113°
2026-04-22 20:07 47.26376 11.23042 3260 ft 138 kts 113°
2026-04-22 20:07 47.26007 11.24343 3131 ft 138 kts 108°
2026-04-22 20:08 47.25715 11.25689 3082 ft 138 kts 106°
2026-04-22 20:08 47.25447 11.27049 2916 ft 139 kts 101°
2026-04-22 20:08 47.25385 11.28450 2694 ft 138 kts 84°
2026-04-22 20:08 47.25521 11.29838 2463 ft 136 kts 81°
2026-04-22 20:09 47.25673 11.31209 2203 ft 135 kts 81°
2026-04-22 20:09 47.25823 11.32567 2035 ft 134 kts 81°
2026-04-22 20:09 47.25966 11.33898 1893 ft 123 kts 81°
2026-04-22 20:09 47.26049 11.34670 1903 ft 56 kts 81°
2026-04-22 20:10 47.26102 11.35160 1901 ft 22 kts 80°
2026-04-22 20:10 47.26052 11.35263 1892 ft 13 kts 166°
2026-04-22 20:10 47.25964 11.35285 1897 ft 13 kts 176°
2026-04-22 20:10 47.25908 11.35259 1897 ft 7 kts 252°
2026-04-22 20:11 47.25897 11.35179 1903 ft 8 kts 260°
2026-04-22 20:11 47.25891 11.35113 1893 ft 6 kts 264°
2026-04-22 20:11 47.25885 11.35055 1893 ft 3 kts 252°
2026-04-22 20:11 47.25867 11.35043 1903 ft 4 kts 186°
2026-04-22 20:12 47.25833 11.35048 1894 ft 4 kts 171°
2026-04-22 20:12 47.25822 11.35050 1903 ft 0 kts 171°